Header for Extended Forecast Station List Page

Search by: ID | Name | Date | Parm | Value | Avg | % Avg
Sort by: ID | Name | Date | Parm | Value | Avg | % Avg

Enter search or view all records.

Click on id for station plot
#IDNameDateParmValueAvg% Avg
0HWRI1BIG LOST-AT HOWELL RANCH NEAR CHILLY05-09-2022DISCHARGE (KAF)9712578
1MACI1BIG LOST-MACKAY RESERVOIR NEAR MACKAY05-09-2022INFLOW (KAF)9392101
2HALI1BIG WOOD-AT HAILEY05-09-2022DISCHARGE (KAF)14016187
3MAGI1BIG WOOD-MAGIC DAM05-09-2022INFLOW (KAF)9011082
4BITM8BITTERROOT-NEAR MISSOULA05-09-2022DISCHARGE (KAF)956916104
5BONM8BLACKFOOT-NEAR BONNER05-09-2022DISCHARGE (KAF)49757487
6BIGI1BOISE-AT GLENWOOD BRIDGE05-09-2022DISCHARGE (KAF)26727497
7LUCI1BOISE-LUCKY PEAK DAM05-09-2022INFLOW (KAF)1015998102
8PARI1BOISE-NEAR PARMA05-09-2022DISCHARGE (KAF)22223794
9HOTI1BRUNEAU-NEAR HOT SPRINGS05-09-2022DISCHARGE (KAF)4910646
10BULO3BULLY CREEK-BULLY CREEK DAM05-09-2022INFLOW (KAF)001560
11BUDW1BUMPING-BUMPING LAKE DAM05-09-2022INFLOW (KAF)9980124
12CHDW1CHELAN-LAKE CHELAN DAM05-09-2022INFLOW (KAF)965825117
13ABOM8CLARK FORK-ABOVE MISSOULA05-09-2022DISCHARGE (KAF)873103784
14DLGM8CLARK FORK-AT DEER LODGE05-09-2022DISCHARGE (KAF)346354
15SRGM8CLARK FORK-AT ST REGIS05-09-2022DISCHARGE (KAF)2495259796
16BELM8CLARK FORK-BELOW MISSOULA05-09-2022DISCHARGE (KAF)1829199192
17CABI1CLARK FORK-CABINET GORGE DAM05-09-2022INFLOW (KAF)74837516100
18NOXM8CLARK FORK-NOXON RAPIDS DAM05-09-2022INFLOW (KAF)68286843100
19DRMM8CLARK FORK-NR DRUMMOND05-09-2022DISCHARGE (KAF)11118560
20CLUW1CLE ELUM-CLE ELUM LAKE05-09-2022INFLOW (KAF)337270125
21ORFI1CLEARWATER-AT OROFINO05-09-2022DISCHARGE (KAF)33962964115
22SPDI1CLEARWATER-AT SPALDING05-09-2022DISCHARGE (KAF)53335019106
23COEI1COEUR D ALENE-COEUR D ALENE LAKE05-09-2022INFLOW (KAF)15511188131
24CIBW1COLUMBIA-AT INTL BOUNDARY05-09-2022DISCHARGE (KAF)3163729917106
25BONO3COLUMBIA-BONNEVILLE DAM05-09-2022INFLOW (KAF)5203551298101
26CHJW1COLUMBIA-CHIEF JOSEPH DAM05-09-2022INFLOW (KAF)3091829038106
27GCDW1COLUMBIA-GRAND COULEE DAM05-09-2022INFLOW (KAF)3458130418114
28JDAO3COLUMBIA-JOHN DAY DAM05-09-2022INFLOW (KAF)5085849501103
29MCDW1COLUMBIA-MCNARY DAM05-09-2022INFLOW (KAF)4967049361101
30PRWW1COLUMBIA-PRIEST RAPIDS DAM05-09-2022INFLOW (KAF)3505233161106
31RRHW1COLUMBIA-ROCKY REACH DAM05-09-2022INFLOW (KAF)3396632026106
32TDAO3COLUMBIA-THE DALLES DAM05-09-2022INFLOW (KAF)5112949697103
33WANW1COLUMBIA-WANAPUM DAM05-09-2022INFLOW (KAF)3508533059106
34WELW1COLUMBIA-WELLS DAM05-09-2022INFLOW (KAF)3311131084107
35DEDI1DEADWOOD-NEAR LOWMAN05-09-2022INFLOW (KAF)829091
36MODO3DESCHUTES-AT MOODY NR BIGGS05-09-2022DISCHARGE (KAF)11681160101
37ARDW1ENTIAT-NEAR ARDENVOIR05-09-2022DISCHARGE (KAF)186162115
38CHEI1FALL RIVER-NEAR CHESTER05-09-2022DISCHARGE (KAF)14925559
39CFMM8FLATHEAD-AT COLUMBIA FALLS05-09-2022DISCHARGE (KAF)38773488111
40KERM8FLATHEAD-SELI’Š KSANKA QLISPE’ DAM05-09-2022INFLOW (KAF)45174181108
41TRYO3GRANDE RONDE-TROY05-09-2022DISCHARGE (KAF)71476493
42REXI1HENRYS FORK-AT REXBURG05-09-2022DISCHARGE (KAF)33956260
43ANTI1HENRYS FORK-AT ST. ANTHONY05-09-2022DISCHARGE (KAF)35948874
44IPDI1HENRYS FORK-ISLAND PARK DAM05-09-2022INFLOW (KAF)13217177
45HODO3HOOD-NEAR TUCKER BRIDGE05-09-2022DISCHARGE (KAF)179142126
46SERO3JOHN DAY-AT SERVICE CK05-09-2022DISCHARGE (KAF)28134083
47KADW1KACHESS-KACHESS DAM05-09-2022INFLOW (KAF)8262131
48LAUW1KETTLE-AT LAURIER05-09-2022DISCHARGE (KAF)1065124885
49PITW1KLICKITAT-NEAR PITT05-09-2022DISCHARGE (KAF)383325118
50BFEI1KOOTENAI-AT BONNERS FERRY05-09-2022STAGE (FT)MMM
51LEOI1KOOTENAI-AT LEONIA05-09-2022DISCHARGE (KAF)41184028102
52LYDM8KOOTENAI-LIBBY DAM05-09-2022INFLOW (KAF)55894896114
53LWRI1LITTLE WOOD-LITTLE WOOD DAM05-09-2022INFLOW (KAF)253866
54BERO3MALHEUR-AGENCY VALLEY DAM05-09-2022INFLOW (KAF)102539
55WRMO3MALHEUR-WARM SPRINGS DAM05-09-2022INFLOW (KAF)51727
56MYKO3MCKAY CREEK-NEAR PILOT ROCK05-09-2022DISCHARGE (KAF)156252
57PATW1METHOW-NEAR PATEROS05-09-2022DISCHARGE (KAF)786676116
58WGCM8MF FLATHEAD-NEAR WEST GLACIER05-09-2022DISCHARGE (KAF)14151199118
59CLFW1NACHES-NEAR CLIFFDEL05-09-2022DISCHARGE (KAF)332267124
60NACW1NACHES-NEAR NACHES05-09-2022DISCHARGE (KAF)566393144
61DWRI1NF CLEARWATER-DWORSHAK DAM05-09-2022INFLOW (KAF)17771532116
62FCFM8NF FLATHEAD-NEAR COLUMBIA FALLS05-09-2022DISCHARGE (KAF)14671264116
63MONO3NF JOHN DAY-AT MONUMENT05-09-2022DISCHARGE (KAF)22623796
64CSDI1NF PAYETTE-CASCADE DAM05-09-2022INFLOW (KAF)26731385
65TONW1OKANOGAN-NEAR TONASKET05-09-2022DISCHARGE (KAF)14041212116
66OWYO3OWYHEE-OWYHEE DAM05-09-2022INFLOW (KAF)6311654
67EMMI1PAYETTE-NEAR EMMETT05-09-2022DISCHARGE (KAF)67289175
68ALFW1PEND OREILLE-ALBENI FALLS DAM05-09-2022INFLOW (KAF)83928170103
69HOPI1PEND OREILLE-PEND OREILLE LAKE NR HOPE05-09-2022LAKE ELEVATION (FT)MMM
70PIHI1PORTNEUF-AT POCATELLO05-09-2022DISCHARGE (KAF)193062
71PRTI1PRIEST-NEAR PRIEST RIVER05-09-2022DISCHARGE (KAF)48552892
72RCCM8ROCK CREEK-NEAR CLINTON05-09-2022DISCHARGE (KAF)229213107
73WHBI1SALMON-AT WHITEBIRD05-09-2022DISCHARGE (KAF)4162437595
74ARAI1SF BOISE-ANDERSON RANCH DAM05-09-2022INFLOW (KAF)27728498
75HHWM8SF FLATHEAD-HUNGRY HORSE DAM05-09-2022INFLOW (KAF)14831425104
76PLDI1SF SNAKE-PALISADES DAM05-09-2022INFLOW (KAF)2154256384
77SIFI1SNAKE-AB EAGLE ROCK NR IDAHO FALLS05-09-2022DISCHARGE (KAF)1613194083
78AFRI1SNAKE-AMERICAN FALLS RESERVOIR05-09-2022INFLOW (KAF)1288156083
79SNAI1SNAKE-AT BLACKFOOT05-09-2022DISCHARGE (KAF)805106376
80MILI1SNAKE-AT MILNER05-09-2022DISCHARGE (KAF)M49M
81WEII1SNAKE-AT WEISER05-09-2022DISCHARGE (KAF)2733313187
82SWAI1SNAKE-BELOW SWAN FALLS05-09-2022DISCHARGE (KAF)1489168189
83BRNI1SNAKE-BROWNLEE DAM05-09-2022INFLOW (KAF)2940343985
84IHDW1SNAKE-ICE HARBOR DAM05-09-2022INFLOW (KAF)134981484191
85JLKW4SNAKE-JACKSON LAKE AT DAM05-09-2022INFLOW (KAF)46462774
86LGSW1SNAKE-LITTLE GOOSE DAM05-09-2022INFLOW (KAF)134381486390
87LGDW1SNAKE-LOWER GRANITE DAM05-09-2022INFLOW (KAF)134451488590
88LMNW1SNAKE-LOWER MONUMENTAL DAM05-09-2022INFLOW (KAF)134941483391
89ALPW4SNAKE-NEAR ALPINE05-09-2022DISCHARGE (KAF)1560193281
90ANAW1SNAKE-NEAR ANATONE05-09-2022DISCHARGE (KAF)8113949885
91BFTI1SNAKE-NEAR BLACKFOOT05-09-2022DISCHARGE (KAF)762102674
92HEII1SNAKE-NEAR HEISE05-09-2022DISCHARGE (KAF)2647294190
93JKSW4SNAKE-NEAR JACKSON05-09-2022DISCHARGE (KAF)1326157084
94SHYI1SNAKE-NEAR SHELLEY05-09-2022DISCHARGE (KAF)1378173979
95LLKW1SPOKANE-AT LONGLAKE05-09-2022INFLOW (KAF)18251507121
96SPOW1SPOKANE-AT SPOKANE05-09-2022DISCHARGE (KAF)16391307125
97SJMI1ST JOE-AT ST MARIES05-09-2022STAGE (FT)MMM
98SATI1ST MARIES-NEAR SANTA05-09-2022DISCHARGE (KAF)455189
99STRM8ST. REGIS-NEAR ST. REGIS05-09-2022DISCHARGE (KAF)200162124
100TNAW1TEANAWAY-BELOW FORKS05-09-2022DISCHARGE (KAF)8062130
101TEAI1TETON-NEAR ST. ANTHONY05-09-2022DISCHARGE (KAF)25132577
102RILW1TIETON-RIMROCK LAKE NEAR RIMROCK05-09-2022INFLOW (KAF)186151123
103PDTO3UMATILLA-AT PENDLETON05-09-2022DISCHARGE (KAF)7847166
104GIBO3UMATILLA-NEAR GIBBON05-09-2022DISCHARGE (KAF)4630153
105UMAO3UMATILLA-NEAR UMATILLA05-09-2022DISCHARGE (KAF)12641304
106TCHW1WALLA WALLA-NEAR TOUCHET05-09-2022DISCHARGE (KAF)8148169
107WSRI1WEISER-NEAR WEISER05-09-2022DISCHARGE (KAF)193184105
108PESW1WENATCHEE-AT PESHASTIN05-09-2022DISCHARGE (KAF)11221043108
109UNDW1WHITE SALMON-NEAR UNDERWOOD05-09-2022DISCHARGE (KAF)271233116
110RIDI1WILLOW CREEK-RIRIE DAM05-09-2022INFLOW (KAF)152173
111EASW1YAKIMA-AT EASTON05-09-2022DISCHARGE (KAF)13185154
112KIOW1YAKIMA-AT KIONA05-09-2022DISCHARGE (KAF)901602150
113UMTW1YAKIMA-AT UMTANUM05-09-2022DISCHARGE (KAF)924831111
114KEDW1YAKIMA-KEECHELUS LAKE05-09-2022INFLOW (KAF)9272128
115PARW1YAKIMA-NEAR PARKER05-09-2022DISCHARGE (KAF)603336179